Columbus, MS

3:16 PM CST on February 20, 2017 (GMT -0600)
Columbus Air Force Base

Weather History for KCBM - June, 2013

Change the Weather History Date:

Saturday, June 22, 2013

  Actual Average Record
Temperature  
Mean Temperature 78 °F -  
Max Temperature 88 °F 86 °F 96 °F (1998)
Min Temperature 68 °F 67 °F 59 °F (2007)
Cooling Degree Days 13    
Growing Degree Days 28 (Base 50)    
Moisture  
Dew Point 67 °F    
Average Humidity 67    
Maximum Humidity 93    
Minimum Humidity 43    
Precipitation  
Precipitation 0.00 in - - ()
Sea Level Pressure  
Sea Level Pressure 30.11 in    
Wind  
Wind Speed 2 mph (SE)    
Max Wind Speed 9 mph    
Max Gust Speed -    
Visibility 10 miles    
Events Rain    
Averages and records for this station are not official NWS values.
T = Trace of Precipitation, MM = Missing Value Source: NWS Daily Summary

Daily Weather History Graph

Daily Weather History Graph

Search for Another Location

Airport or City:

Trip Planner

Search our weather history database for the weather conditions in past years. The results will help you decide how hot, cold, wet, or windy it might be!

Date:

Astronomy

Jun. 22, 2013 Rise Set
Actual Time 5:44 AM CDT 8:07 PM CDT
Civil Twilight 5:15 AM CDT 8:36 PM CDT
Nautical Twilight 4:39 AM CDT 9:12 PM CDT
Astronomical Twilight 4:00 AM CDT 9:51 PM CDT
Moon 7:25 PM CDT (6/22) 4:53 AM CDT (6/22)
Length of Visible Light 15h 21m
Length of Day
14h 23m
Waxing Gibbous, 99% of the Moon is Illuminated
Jun 22
Waxing Gibbous
Jun 23
Full
Jun 29
Last Quarter
Jul 8
New
Jul 15
First Quarter

Hourly Weather History & Observations

Time (CDT) Temp. Heat Index Dew Point Humidity Pressure Visibility Wind Dir Wind Speed Gust Speed Precip Events Conditions
12:58 AM 73.2 °F - 68.9 °F 86% 30.12 in 10.0 mi Calm Calm - N/A   Clear
1:58 AM 72.3 °F - 68.9 °F 89% 30.11 in 10.0 mi Calm Calm - N/A   Clear
2:58 AM 72.0 °F - 67.3 °F 85% 30.11 in 10.0 mi Calm Calm - N/A   Partly Cloudy
3:58 AM 71.2 °F - 67.3 °F 87% 30.11 in 10.0 mi Calm Calm - N/A   Partly Cloudy
4:58 AM 70.0 °F - 67.3 °F 91% 30.12 in 10.0 mi Calm Calm - N/A   Clear
5:58 AM 68.9 °F - 66.9 °F 93% 30.14 in 10.0 mi Calm Calm - N/A   Clear
6:58 AM 71.6 °F - 68.0 °F 88% 30.14 in 10.0 mi Calm Calm - N/A   Clear
7:58 AM 73.6 °F - 67.1 °F 80% 30.17 in 10.0 mi Calm Calm - N/A   Clear
8:58 AM 79.3 °F - 66.9 °F 66% 30.17 in 10.0 mi SSE 6.9 mph - N/A   Clear
9:58 AM 82.8 °F 84.5 °F 65.3 °F 55% 30.17 in 10.0 mi SSE 8.1 mph - N/A   Clear
10:58 AM 84.7 °F 86.6 °F 65.5 °F 52% 30.19 in 10.0 mi Variable 5.8 mph - N/A   Clear
11:58 AM 86.4 °F 87.6 °F 64.0 °F 47% 30.17 in 10.0 mi ESE 5.8 mph - N/A   Clear
12:58 PM 87.3 °F 88.6 °F 64.0 °F 46% 30.17 in 10.0 mi SE 5.8 mph - N/A   Partly Cloudy
1:58 PM 88.0 °F 90.0 °F 65.3 °F 47% 30.14 in 10.0 mi SE 9.2 mph - N/A   Clear
2:58 PM 86.9 °F 88.3 °F 64.2 °F 47% 30.12 in 10.0 mi ESE 6.9 mph - N/A   Clear
3:58 PM 88.9 °F 90.0 °F 64.0 °F 43% 30.09 in 10.0 mi SSE 4.6 mph - N/A   Clear
4:58 PM 87.3 °F 88.9 °F 64.9 °F 47% 30.07 in 10.0 mi SSE 3.5 mph - N/A   Clear
5:58 PM 87.3 °F 89.2 °F 65.1 °F 48% 30.06 in 10.0 mi South 6.9 mph - N/A   Clear
6:58 PM 85.8 °F 87.6 °F 65.5 °F 50% 30.06 in 10.0 mi Calm Calm - N/A   Clear
7:45 PM 82.4 °F 86.3 °F 69.8 °F 66% 30.05 in 10.0 mi Calm Calm - N/A Rain Light Rain
7:53 PM 82.4 °F 86.3 °F 69.8 °F 66% 30.06 in 10.0 mi Calm Calm - N/A   Clear
7:58 PM 81.5 °F 84.8 °F 69.3 °F 66% 30.06 in 10.0 mi Calm Calm - N/A   Clear
8:58 PM 76.8 °F - 69.6 °F 78% 30.07 in 10.0 mi Calm Calm - N/A   Clear
9:58 PM 77.2 °F - 67.6 °F 72% 30.09 in 10.0 mi ESE 2.3 mph - N/A   Clear
10:58 PM 74.3 °F - 66.6 °F 77% 30.11 in 10.0 mi Calm Calm - N/A   Clear
11:58 PM 73.6 °F - 65.1 °F 75% 30.11 in 10.0 mi Calm Calm - N/A   Clear